Location: *
(42.5628°N, 2.3633°E)
Time: 01:19:12
(UTC+00:00)

Cosmos 1603 - Pass Details

Date: 30 March 2020
Orbit: 831 x 859 km, 71.0° (Epoch: 30 May)

Event Time Altitude Azimuth Distance (km) Brightness Sun altitude
Rises 20:32:53 0° 206° (SSW) 3,382 6.8 -24.7°
Reaches altitude 10° 20:35:19 10° 207° (SSW) 2,447 6.0 -25.1°
Maximum altitude 20:40:57 80° 294° (WNW) 852 3.7 -25.9°
Drops below altitude 10° 20:46:34 10° 22° (NNE) 2,449 6.2 -26.8°
Sets 20:49:01 0° 24° (NNE) 3,385 7.0 -27.2°
